When you browse on this site, cookies collect data to enhance your experience and personalize the content and advertising you see.
Visit our Privacy Policy to learn more. By continuing to use the site, you agree to this use of cookies and data.
  • In Austria
  • List of Countries
  • For 7 days
  • Water Temperature
  • Satellite Maps
  • Weather Map
  • News
  • Weather Widgets
  • user-avatar
    Login

    Hourly Weather Poreba

    Today, 16 February, Saturday

    Time Temperature Precipitation Wind Pressure Humidity
    00:00 +4°C° 0 mm 1 mps 770 mmHg 80%
    01:00 +4°C° 0 mm 1 mps 770 mmHg 78%
    02:00 +4°C° 0 mm 1 mps 769 mmHg 78%
    03:00 +4°C° 0 mm 1 mps 769 mmHg 77%
    04:00 +3°C° 0 mm 2 mps 769 mmHg 77%
    05:00 +3°C° 0 mm 2 mps 768 mmHg 77%
    06:00 +3°C° 0 mm 2 mps 768 mmHg 77%
    07:00 +2°C° 0 mm 2 mps 768 mmHg 76%
    08:00 +3°C° 0 mm 3 mps 768 mmHg 71%
    09:00 +4°C° 0 mm 3 mps 767 mmHg 65%
    10:00 +7°C° 0 mm 3 mps 767 mmHg 59%
    11:00 +9°C° 0 mm 3 mps 767 mmHg 55%
    12:00 +10°C° 0 mm 4 mps 767 mmHg 50%
    13:00 +13°C° 0 mm 3 mps 766 mmHg 45%
    14:00 +12°C° 0 mm 3 mps 766 mmHg 47%
    15:00 +12°C° 0 mm 3 mps 766 mmHg 49%
    16:00 +12°C° 0 mm 3 mps 765 mmHg 51%
    17:00 +10°C° 0 mm 3 mps 765 mmHg 57%
    18:00 +9°C° 0 mm 3 mps 765 mmHg 62%
    19:00 +8°C° 0 mm 3 mps 765 mmHg 68%
    20:00 +7°C° 0 mm 3 mps 765 mmHg 70%
    21:00 +7°C° 0 mm 3 mps 765 mmHg 73%
    22:00 +5°C° 0 mm 3 mps 765 mmHg 75%
    23:00 +5°C° 0 mm 3 mps 765 mmHg 77%

    Tomorrow, 17 February, Sunday

    Time Temperature Precipitation Wind Pressure Humidity
    00:00 +4°C° 0 mm 3 mps 765 mmHg 80%
    01:00 +5°C° 0 mm 2 mps 766 mmHg 83%
    02:00 +4°C° 0 mm 2 mps 766 mmHg 85%
    03:00 +4°C° 0 mm 2 mps 765 mmHg 87%
    04:00 +4°C° 0 mm 2 mps 765 mmHg 89%
    05:00 +3°C° 0 mm 2 mps 765 mmHg 90%
    06:00 +3°C° 0 mm 2 mps 766 mmHg 91%
    07:00 +3°C° 0 mm 2 mps 766 mmHg 92%
    08:00 +4°C° 0 mm 2 mps 766 mmHg 86%
    09:00 +5°C° 0 mm 2 mps 766 mmHg 81%
    10:00 +7°C° 0 mm 2 mps 766 mmHg 75%
    11:00 +8°C° 0 mm 2 mps 766 mmHg 71%
    12:00 +9°C° 0 mm 2 mps 766 mmHg 66%
    13:00 +10°C° 0 mm 2 mps 766 mmHg 62%
    14:00 +11°C° 0 mm 1 mps 765 mmHg 63%
    15:00 +11°C° 0 mm 1 mps 765 mmHg 63%
    16:00 +11°C° 0 mm 1 mps 765 mmHg 64%
    17:00 +10°C° 0 mm 1 mps 765 mmHg 69%
    18:00 +9°C° 0 mm 1 mps 765 mmHg 73%
    19:00 +8°C° 0 mm 1 mps 765 mmHg 77%
    20:00 +7°C° 0 mm 1 mps 765 mmHg 78%
    21:00 +7°C° 0 mm 1 mps 765 mmHg 79%
    22:00 +5°C° 0 mm 2 mps 765 mmHg 80%
    23:00 +5°C° 0 mm 2 mps 765 mmHg 81%

    Day after tomorrow, 18 February, Monday

    Time Temperature Precipitation Wind Pressure Humidity
    00:00 +5°C° 0 mm 2 mps 765 mmHg 81%
    01:00 +4°C° 0 mm 2 mps 765 mmHg 82%
    02:00 +4°C° 0 mm 2 mps 764 mmHg 81%
    03:00 +4°C° 0 mm 2 mps 764 mmHg 81%
    04:00 +3°C° 0 mm 2 mps 764 mmHg 80%
    05:00 +3°C° 0 mm 2 mps 763 mmHg 80%
    06:00 +3°C° 0 mm 2 mps 763 mmHg 80%
    07:00 +3°C° 0 mm 2 mps 763 mmHg 81%
    08:00 +4°C° 0 mm 2 mps 763 mmHg 75%
    09:00 +5°C° 0 mm 2 mps 763 mmHg 69%
    10:00 +7°C° 0 mm 2 mps 763 mmHg 63%
    11:00 +8°C° 0 mm 2 mps 763 mmHg 59%
    12:00 +9°C° 0 mm 2 mps 763 mmHg 54%
    13:00 +11°C° 0 mm 3 mps 762 mmHg 49%
    14:00 +12°C° 0 mm 2 mps 762 mmHg 51%
    15:00 +12°C° 0 mm 2 mps 762 mmHg 52%
    16:00 +12°C° 0 mm 2 mps 762 mmHg 53%
    17:00 +9°C° 0 mm 2 mps 761 mmHg 58%
    18:00 +8°C° 0 mm 2 mps 761 mmHg 62%
    19:00 +7°C° 0 mm 2 mps 761 mmHg 67%
    20:00 +6°C° 0 mm 2 mps 761 mmHg 69%
    21:00 +6°C° 0 mm 2 mps 761 mmHg 71%
    22:00 +5°C° 0 mm 2 mps 761 mmHg 73%
    23:00 +5°C° 0 mm 2 mps 761 mmHg 74%

    19 February, Tuesday

    Time Temperature Precipitation Wind Pressure Humidity
    00:00 +4°C° 0 mm 3 mps 761 mmHg 75%
    01:00 +3°C° 0 mm 3 mps 760 mmHg 76%
    02:00 +3°C° 0 mm 3 mps 760 mmHg 79%
    03:00 +3°C° 0 mm 3 mps 760 mmHg 81%
    04:00 +3°C° 0 mm 3 mps 759 mmHg 83%
    05:00 +3°C° 0 mm 3 mps 759 mmHg 82%
    06:00 +2°C° 0 mm 3 mps 759 mmHg 82%
    07:00 +2°C° 0 mm 3 mps 759 mmHg 82%
    08:00 +4°C° 0 mm 4 mps 759 mmHg 75%
    09:00 +5°C° 0 mm 4 mps 759 mmHg 68%
    10:00 +6°C° 0 mm 4 mps 758 mmHg 62%
    11:00 +7°C° 0 mm 5 mps 758 mmHg 59%
    12:00 +9°C° 0 mm 5 mps 758 mmHg 57%
    13:00 +10°C° 0 mm 5 mps 758 mmHg 54%
    14:00 +9°C° 0.2 mm 5 mps 758 mmHg 62%
    15:00 +8°C° 0.2 mm 6 mps 758 mmHg 70%
    16:00 +7°C° 0.2 mm 6 mps 758 mmHg 78%
    17:00 +7°C° 0.1 mm 5 mps 758 mmHg 80%
    18:00 +6°C° 0.1 mm 4 mps 758 mmHg 82%
    19:00 +5°C° 0.1 mm 4 mps 759 mmHg 84%
    20:00 +5°C° 0 mm 4 mps 759 mmHg 84%
    21:00 +5°C° 0 mm 4 mps 760 mmHg 84%
    22:00 +4°C° 0 mm 4 mps 760 mmHg 85%
    23:00 +4°C° 0 mm 4 mps 760 mmHg 85%

    20 February, Wednesday

    Time Temperature Precipitation Wind Pressure Humidity
    00:00 +4°C° 0 mm 4 mps 760 mmHg 86%
    01:00 +4°C° 0 mm 4 mps 761 mmHg 87%
    02:00 +3°C° 0 mm 4 mps 761 mmHg 88%
    03:00 +3°C° 0 mm 4 mps 761 mmHg 89%
    04:00 +3°C° 0 mm 4 mps 761 mmHg 91%
    05:00 +1°C° 0 mm 4 mps 761 mmHg 90%
    06:00 +1°C° 0 mm 4 mps 762 mmHg 90%
    07:00 +1°C° 0 mm 4 mps 762 mmHg 89%
    08:00 +2°C° 0 mm 5 mps 762 mmHg 86%
    09:00 +2°C° 0 mm 5 mps 763 mmHg 83%
    10:00 +3°C° 0 mm 5 mps 763 mmHg 80%
    11:00 +5°C° 0 mm 5 mps 763 mmHg 75%
    12:00 +6°C° 0 mm 5 mps 763 mmHg 70%
    13:00 +7°C° 0 mm 5 mps 763 mmHg 65%
    14:00 +7°C° 0 mm 5 mps 764 mmHg 67%
    15:00 +7°C° 0 mm 4 mps 764 mmHg 69%
    16:00 +8°C° 0 mm 3 mps 764 mmHg 71%
    17:00 +7°C° 0 mm 3 mps 764 mmHg 74%
    18:00 +7°C° 0 mm 3 mps 764 mmHg 77%
    19:00 +7°C° 0 mm 3 mps 764 mmHg 81%
    20:00 +5°C° 0 mm 3 mps 764 mmHg 82%
    21:00 +5°C° 0 mm 3 mps 765 mmHg 84%
    22:00 +5°C° 0 mm 3 mps 765 mmHg 86%
    23:00 +5°C° 0 mm 3 mps 765 mmHg 87%

    21 February, Thursday

    Time Temperature Precipitation Wind Pressure Humidity
    00:00 +4°C° 0 mm 3 mps 765 mmHg 88%
    01:00 +4°C° 0 mm 3 mps 765 mmHg 89%
    02:00 +4°C° 0.2 mm 3 mps 765 mmHg 89%
    03:00 +4°C° 0.2 mm 3 mps 765 mmHg 90%
    04:00 +4°C° 0.2 mm 3 mps 764 mmHg 90%
    05:00 +4°C° 0.2 mm 3 mps 764 mmHg 90%
    06:00 +4°C° 0.2 mm 3 mps 764 mmHg 89%
    07:00 +4°C° 0.2 mm 3 mps 764 mmHg 89%
    08:00 +5°C° 0 mm 3 mps 764 mmHg 85%
    09:00 +6°C° 0 mm 4 mps 764 mmHg 81%
    10:00 +6°C° 0 mm 4 mps 764 mmHg 77%
    11:00 +7°C° 0 mm 4 mps 764 mmHg 76%
    12:00 +7°C° 0 mm 4 mps 764 mmHg 74%
    13:00 +8°C° 0 mm 4 mps 763 mmHg 73%
    14:00 +7°C° 0.3 mm 4 mps 763 mmHg 77%
    15:00 +7°C° 0.3 mm 4 mps 763 mmHg 82%
    16:00 +7°C° 0.3 mm 4 mps 763 mmHg 86%
    17:00 +7°C° 0.3 mm 4 mps 763 mmHg 87%
    18:00 +6°C° 0.3 mm 4 mps 763 mmHg 88%
    19:00 +7°C° 0.3 mm 3 mps 763 mmHg 89%
    20:00 +6°C° 0.1 mm 4 mps 763 mmHg 89%
    21:00 +6°C° 0.1 mm 4 mps 763 mmHg 90%
    22:00 +6°C° 0.1 mm 4 mps 763 mmHg 91%
    23:00 +6°C° 0.9 mm 4 mps 763 mmHg 92%
    Show more